DateTimeUTC,F1_A11,F1_S11,BsB_S11,BsG_S11,BsR_S11,BbsB_S11,BbsG_S11,BbsR_S11,BaB_A11,BaG_A11,BaR_A11,Tu_S11,T_S11,Uu_S11,U_S11,P_S11,T1_A11
2021-02-05T21:00:00Z,00000200,21000000,,,,,,,0000.16,-000.49,0000.10,15.6,23.2,,00.0,0645.1,30.9
2021-02-05T21:01:00Z,00000200,21000000,,,,,,,0000.27,0000.43,0000.43,15.6,23.2,,00.0,0645.1,30.9
2021-02-05T21:02:00Z,00000200,21000000,,,,,,,0000.19,0000.04,-000.15,15.6,23.2,,00.0,0645.1,30.9
2021-02-05T21:03:00Z,00000200,61000000,,,,,,,0000.35,0000.92,0000.43,15.6,23.2,,00.0,0645.1,30.9
2021-02-05T21:04:00Z,00000200,41000000,0000.27,0000.19,0000.01,-000.03,0000.17,0000.08,0000.23,-000.42,0000.17,16.1,23.1,,00.0,0645.9,30.9
2021-02-05T21:05:00Z,00000200,01000000,0000.41,0000.00,0000.24,0000.01,0000.03,0000.16,0000.11,0000.47,0000.23,16.2,23.1,,00.0,0646.0,30.9
2021-02-05T21:06:00Z,00000200,01000000,0000.88,0000.39,0000.17,0000.27,0000.02,0000.21,0000.39,0000.37,0000.20,16.3,23.1,,00.0,0646.0,30.9
2021-02-05T21:07:00Z,00000200,01000000,-000.13,-000.12,0000.08,0000.34,0000.01,-000.10,0000.13,0000.10,-000.17,16.4,23.2,,00.0,0645.9,30.9
2021-02-05T21:08:00Z,00000200,01000000,0000.44,0000.15,0000.27,-000.04,0000.35,-000.02,0000.38,0000.55,0000.86,16.4,23.2,,00.0,0645.9,30.9
2021-02-05T21:09:00Z,00000200,01000000,0000.48,0000.43,0000.15,-000.28,0000.06,0000.12,0000.33,0000.28,-000.20,16.4,23.2,,00.0,0645.9,30.9
2021-02-05T21:10:00Z,00000200,01000000,0000.23,0000.18,-000.02,-000.56,0000.30,-000.03,0000.19,-000.02,0000.03,16.3,23.2,,00.0,0645.9,30.9
2021-02-05T21:11:00Z,00000200,01000000,0000.34,0000.19,-000.02,0000.09,-000.03,0000.25,-000.30,0000.04,0000.02,16.3,23.1,,00.0,0646.0,30.9
2021-02-05T21:12:00Z,00000200,01000000,0000.29,0000.06,-000.06,0000.14,0000.04,-000.05,0000.01,-000.19,0000.12,16.2,23.1,,00.0,0646.0,30.9
2021-02-05T21:13:00Z,00000200,01000000,0000.20,0000.13,0000.07,-000.33,0000.22,0000.01,0000.20,0000.36,0000.05,16.2,23.1,,00.0,0646.0,30.9
2021-02-05T21:14:00Z,00000200,01000000,0000.30,0000.09,0000.01,-000.91,0000.10,0000.03,-000.29,-000.35,-000.37,16.1,23.0,,00.0,0646.1,30.9
2021-02-05T21:15:00Z,00000200,01000000,0000.03,0000.03,0000.07,-000.49,0000.10,-000.08,0000.26,-000.32,0000.21,16.1,23.0,,00.0,0646.1,30.9
2021-02-05T21:16:00Z,00000200,01000000,0000.16,0000.08,0000.12,-000.21,0000.18,0000.03,0000.12,0000.85,0000.31,16.1,23.0,,00.0,0646.1,30.9
2021-02-05T21:17:00Z,00000200,01000000,0000.48,-000.20,0000.13,-000.40,0000.07,0000.02,0000.28,0000.12,-000.15,16.2,23.0,,00.0,0646.1,30.9
2021-02-05T21:18:00Z,00000200,01000000,0000.38,0000.13,-000.01,-000.03,0000.09,0000.20,0000.08,0000.19,0000.25,16.3,23.0,,00.0,0646.1,30.9
2021-02-05T21:19:00Z,00000200,01000000,0000.09,-000.18,0000.41,-000.10,0000.09,0000.06,0000.06,-000.43,0000.06,16.3,23.1,,00.0,0646.1,30.9
2021-02-05T21:20:00Z,00000200,01000000,0000.35,0000.22,0000.02,-000.12,0000.06,0000.27,-000.49,-000.47,-000.02,16.4,23.1,,00.0,0646.1,30.9
2021-02-05T21:21:00Z,00000200,01000000,0000.00,0000.34,-000.04,-000.15,0000.24,0000.05,0000.02,0000.47,-000.14,16.4,23.1,,00.0,0646.1,30.9
2021-02-05T21:22:00Z,00000200,01000000,0000.26,0000.18,0000.11,-000.45,0000.32,-000.02,0000.90,0000.25,0000.26,16.3,23.1,,00.0,0646.1,30.9
2021-02-05T21:23:00Z,00000200,01000000,0000.57,0000.18,-000.13,0000.07,0000.25,0000.07,-000.39,0000.05,-000.17,16.3,23.1,,00.0,0646.2,30.9
2021-02-05T21:24:00Z,00000200,01000000,0000.61,0000.33,-000.15,0000.23,0000.02,-000.35,0000.30,-000.02,0000.23,16.2,23.1,,00.0,0646.2,30.9
2021-02-05T21:25:00Z,00000200,01000000,0000.32,0000.40,0000.24,-000.05,-000.00,-000.12,-000.13,0000.26,-000.17,16.2,23.0,,00.0,0646.2,30.9
2021-02-05T21:26:00Z,00000200,01000000,0000.36,0000.15,0000.32,-000.10,0000.03,0000.51,0000.10,0000.17,0000.47,16.1,23.0,,00.0,0646.2,30.9
2021-02-05T21:27:00Z,00000200,01000000,0000.04,0000.45,0000.18,-000.03,0000.17,0000.18,-000.19,-000.46,-000.33,16.1,23.0,,00.0,0646.3,30.9
2021-02-05T21:28:00Z,00000200,01000000,0000.33,0000.33,0000.22,0000.15,0000.22,0000.18,0000.45,0000.04,0000.20,16.0,22.9,,00.0,0646.3,30.9
2021-02-05T21:29:00Z,00000200,01000000,0000.39,0000.07,-000.20,0000.21,0000.21,0000.00,-000.25,0000.30,-000.12,16.0,22.9,,00.0,0646.3,30.9
2021-02-05T21:30:00Z,00000200,01000000,0000.20,0000.07,0000.08,-000.37,-000.07,-000.01,-000.07,-000.64,-000.23,15.9,22.9,,00.0,0646.3,30.8
2021-02-05T21:31:00Z,00000200,01000000,0000.38,0000.02,0000.20,0000.21,0000.24,0000.27,0000.18,0000.58,0000.40,15.9,22.9,,00.0,0646.3,30.8
2021-02-05T21:32:00Z,00000200,01000000,0000.91,-000.08,-000.02,-000.31,0000.12,0000.31,0000.32,-000.11,0000.19,16.0,22.9,,00.0,0646.3,30.9
2021-02-05T21:33:00Z,00000200,01000000,-000.25,-000.00,0000.40,-000.01,0000.35,-000.02,0000.04,0000.06,-000.20,16.1,22.9,,00.0,0646.3,30.9
2021-02-05T21:34:00Z,00000200,01000000,0000.13,0000.25,0000.03,-000.34,0000.21,-000.03,-000.12,-000.07,0000.05,16.2,23.0,,00.0,0646.3,30.9
2021-02-05T21:35:00Z,00000200,01000000,-000.01,0000.41,0000.01,-000.44,0000.11,-000.09,0000.25,0000.25,0000.39,16.2,23.0,,00.0,0646.3,30.9
2021-02-05T21:36:00Z,00000200,01000000,0000.30,0000.37,-000.03,-000.43,0000.02,0000.17,-000.31,0000.23,-000.16,16.2,23.0,,00.0,0646.4,30.9
2021-02-05T21:37:00Z,00000200,01000000,0000.98,0000.17,0000.12,-000.06,0000.19,0000.22,0000.32,-000.05,-000.13,16.2,23.0,,00.0,0646.4,30.9
2021-02-05T21:38:00Z,00000200,01000000,0000.07,0000.53,0000.16,0000.34,0000.16,0000.05,-000.24,-000.08,0000.08,16.2,23.0,,00.0,0646.4,30.9
2021-02-05T21:39:00Z,00000200,01000000,0000.45,0000.09,0000.05,-000.14,-000.07,0000.23,0000.13,0000.24,0000.03,16.1,23.0,,00.0,0646.4,30.9
2021-02-05T21:40:00Z,00000200,01000000,0000.07,0000.11,0000.09,-000.21,-000.07,-000.01,0000.01,-000.43,-000.01,16.1,22.9,,00.0,0646.4,30.9
2021-02-05T21:41:00Z,00000200,01000000,0000.02,0000.32,0000.19,0000.16,0000.08,0000.11,-000.38,0000.05,-000.21,16.0,22.9,,00.0,0646.4,30.9
2021-02-05T21:42:00Z,00000200,01000000,-000.07,0000.24,0000.21,-000.07,0000.52,0000.08,0000.10,0000.04,0000.21,15.9,22.9,,00.0,0646.4,30.9
2021-02-05T21:43:00Z,00000200,01000000,0000.36,0000.07,0000.13,0000.33,0000.23,0000.07,0000.26,0000.23,0000.03,15.9,22.8,,00.0,0646.4,30.8
2021-02-05T21:44:00Z,00000200,01000000,0000.14,0000.02,-000.09,-000.54,0000.11,0000.04,-000.01,-000.49,-000.15,15.9,22.8,,00.0,0646.4,30.8
2021-02-05T21:45:00Z,00000200,01000000,-000.31,0000.01,0000.26,-000.15,0000.02,-000.03,-000.18,0000.31,0000.09,15.8,22.8,,00.0,0646.5,30.8
2021-02-05T21:46:00Z,00000200,01000000,0000.25,0000.01,0000.16,-000.15,0000.32,-000.01,0000.66,0000.05,0000.20,15.9,22.8,,00.0,0646.5,30.8
2021-02-05T21:47:00Z,00000200,01000000,0000.65,0000.23,0000.26,-000.36,0000.16,0000.15,-000.05,0000.00,0000.18,15.9,22.8,,00.0,0646.5,30.9
2021-02-05T21:48:00Z,00000200,01000000,0000.14,0000.31,0000.19,0000.11,0000.18,0000.10,-000.25,0000.58,-000.23,16.0,22.9,,00.0,0646.5,30.9
2021-02-05T21:49:00Z,00000200,01000000,0000.47,0000.08,-000.02,0000.33,0000.06,-000.08,0000.38,-000.07,0000.25,16.1,22.9,,00.0,0646.5,30.9
2021-02-05T21:50:00Z,00000200,01000000,-000.11,0000.35,0000.20,-000.16,0000.16,0000.19,-000.03,-000.28,-000.10,16.2,22.9,,00.0,0646.5,30.9
2021-02-05T21:51:00Z,00000200,01000000,-000.66,0000.25,0000.04,0000.49,-000.03,-000.08,-000.11,0000.24,0000.04,16.2,22.9,,00.0,0646.6,30.9
2021-02-05T21:52:00Z,00000200,01000000,0000.02,-000.07,-000.22,-000.93,0000.21,0000.15,0000.17,0000.06,0000.29,16.3,23.0,,00.0,0646.6,30.9
2021-02-05T21:53:00Z,00000200,01000000,0000.41,0000.05,0000.29,-000.54,-000.04,0000.05,-000.20,-000.02,-000.02,16.3,23.0,,00.0,0646.6,30.9
2021-02-05T21:54:00Z,00000200,01000000,0000.48,0000.23,-000.25,0000.03,-000.08,0000.11,0000.00,0000.21,-000.28,16.3,23.0,,00.0,0646.6,30.9
2021-02-05T21:55:00Z,00000200,01000000,0000.67,0000.08,0000.12,0000.27,0000.14,0000.08,-000.18,-000.24,-000.05,16.3,23.0,,00.0,0646.6,30.9
2021-02-05T21:56:00Z,00000200,01000000,0000.88,0000.24,0000.23,-000.08,-000.07,0000.22,0000.10,0000.03,0000.21,16.2,23.0,,00.0,0646.7,30.9
2021-02-05T21:57:00Z,00000200,41000000,,,,,,,0000.32,0000.49,0000.01,16.3,23.0,,00.0,0646.6,30.9
2021-02-05T21:58:00Z,00000200,61000000,,,,,,,-000.22,-000.26,-000.17,15.7,23.1,,00.0,0645.8,30.9
2021-02-05T21:59:00Z,00000200,21000000,,,,,,,-000.24,-000.84,-000.24,15.7,23.2,,00.0,0645.8,30.9
